COSMOS 530

Satellite information

Favourite Embed

Satellite Type and Status

PAYLOADIN ORBIT

Key statistics

Satellite COSMOS 530 at a glance.

Uptime

19359

Days in orbit

Revolutions

≈ 12.7

Per day

Orbit

LEO

Low Earth Orbit

Inclination

74.0

Latest

Satellite identification and parameters

Extended collection of information and parameters for COSMOS 530.

Object identification

Identified? True

Debris? False

Object name: COSMOS 530

International designator: 1972-087C

Object number (NORAD): 6265

Object ID (CCSDS): 6265

Country: COMMONWEALTH OF INDEPENDENT STATES (CIS)

Current information (Y/N): Y

RCS size: MEDIUM

Orbital parameters

Period: 113.774 minutes

Inclination: 74.0342 deg

SMA: 7777.757 km

Apoapsis: 1467.048 km

Periapsis: 1332.197 km

RAAN: 250.8472 deg

Eccentricy: 0.00866901

Argument of periapsis: 12.4618 deg

Mean anomaly: 162.1105 deg

Mean motion: 12.65672019 rev/day

Mean motion (dot): -0.00000008 rev/day2

B* drag term: 0.000046603743 1/REarth

Two-line elements (TLE)

Creation date: Nov. 1, 2025, 7:40 p.m.

Reference frame: TEME

Reference center: EARTH

Epoch: Nov. 1, 2025, 3:16 p.m. UTC

TLE line 0: 0 COSMOS 530

TLE line 1: 1 06265U 72087C 25305.63637916 -.00000008 00000-0 46604-4 0 9992

TLE line 2: 2 06265 74.0342 250.8472 0086690 12.4618 162.1105 12.65672019448797

Live tracking on map

Real-time ground track for satellite COSMOS 530.

In-orbit conjunctions

There are no conjunctions computed for COSMOS 530, at the moment. Check back to stay up to date, as we update our databases every day.

Go to all conjunctions

Associated space launch

Military communications satellites

COSMOS 530 was lifted into orbit during the mission ‘Kosmos-3M | Strela-1M 33-40’, on board a Kosmos-3M space rocket.

The launch took place on Nov. 1, 1972, 2:08 a.m. from 132/2.

For more information about the launch, click the button.

Launch to space Kosmos-3M | Strela-1M 33-40
Kosmos-3M | Strela-1M 33-40

Agency: N/A

Status: Launch Successful

Launch date: Nov. 1, 1972, 2:08 a.m. UTC

Rocket: Kosmos-3M

Launch pad: 132/2

Location: Plesetsk Cosmodrome, Russian Federation

...

Latest news about this satellite

There are no fresh news available about this satellite. Check back as we update our databases every day.


Newsletter sign-up

Weekly statistics, charts and insights to help you stay on top of the space industry.